Location: Austin
(30.3000°N, 97.7500°W)
Time: 01:15:44
(UTC-05:00)

Resurs 1-3 - Pass Details

Date: 15 May 2024
Orbit: 621 x 624 km, 97.7° (Epoch: 19 May)

Event Time Altitude Azimuth Distance (km) Brightness Sun altitude
Rises 20:42:17 0° 159° (SSE) 2,886 6.5 -5.5°
Reaches altitude 10° 20:44:29 10° 156° (SSE) 1,983 5.7 -5.9°
Maximum altitude 20:48:44 60° 76° (ENE) 712 3.7 -6.8°
Drops below altitude 10° 20:53:00 10° 357° (N) 1,993 6.6 -7.6°
Sets 20:55:13 0° 353° (N) 2,902 7.5 -8.0°
